,,PressureMeas_1m,,PRMeasQMR101_1,,RHStat155_1m_1,,SRMeasQMS101R_1m,,TAStat155_1m_1,,GenWind_1,,GenWind_1,
2018-09-13, 00:00:06,VALID,918.438,VALID,0.0,VALID,98.36,VALID,-0.011,VALID,19.422,INVALID,360.0,VALID,0.0,
2018-09-13, 00:01:06,VALID,918.43,VALID,0.0,VALID,98.364,VALID,-0.013,VALID,19.447,INVALID,360.0,VALID,0.0,
2018-09-13, 00:02:06,VALID,918.423,VALID,0.0,VALID,98.353,VALID,-0.004,VALID,19.446,VALID,146.0,VALID,0.0,
2018-09-13, 00:03:06,VALID,918.431,VALID,0.0,VALID,98.361,VALID,-0.021,VALID,19.455,VALID,134.0,VALID,0.0,
2018-09-13, 00:04:06,VALID,918.427,VALID,0.0,VALID,98.386,VALID,-0.013,VALID,19.466,VALID,109.0,VALID,0.0,
2018-09-13, 00:05:06,VALID,918.438,VALID,0.0,VALID,98.379,VALID,-0.012,VALID,19.468,VALID,101.0,VALID,0.0,
2018-09-13, 00:06:06,VALID,918.445,VALID,0.0,VALID,98.377,VALID,-0.006,VALID,19.456,VALID,101.0,VALID,0.0,
2018-09-13, 00:07:06,VALID,918.439,VALID,0.0,VALID,98.326,VALID,0.012,VALID,19.427,VALID,101.0,VALID,0.0,
2018-09-13, 00:08:06,VALID,918.455,VALID,0.0,VALID,98.36,VALID,0.001,VALID,19.44,VALID,95.0,VALID,0.0,
2018-09-13, 00:09:06,VALID,918.445,VALID,0.0,VALID,98.35,VALID,-0.01,VALID,19.426,INVALID,360.0,VALID,0.0,
2018-09-13, 00:10:06,VALID,918.45,VALID,0.0,VALID,98.334,VALID,0.02,VALID,19.416,INVALID,360.0,VALID,0.0,
2018-09-13, 00:11:06,VALID,918.446,VALID,0.0,VALID,98.337,VALID,0.006,VALID,19.407,INVALID,360.0,VALID,0.0,
2018-09-13, 00:12:06,VALID,918.46,VALID,0.0,VALID,98.305,VALID,0.008,VALID,19.38,INVALID,360.0,VALID,0.0,
2018-09-13, 00:13:06,VALID,918.446,VALID,0.0,VALID,98.249,VALID,0.012,VALID,19.35,INVALID,360.0,VALID,0.0,
2018-09-13, 00:14:06,VALID,918.442,VALID,0.0,VALID,98.25,VALID,0.005,VALID,19.358,INVALID,360.0,VALID,0.0,
2018-09-13, 00:15:06,VALID,918.447,VALID,0.0,VALID,98.245,VALID,0.001,VALID,19.368,INVALID,360.0,VALID,0.0,
2018-09-13, 00:16:06,VALID,918.455,VALID,0.0,VALID,98.194,VALID,-0.016,VALID,19.347,INVALID,360.0,VALID,0.0,
2018-09-13, 00:17:06,VALID,918.458,VALID,0.0,VALID,98.142,VALID,-0.007,VALID,19.343,INVALID,360.0,VALID,0.0,
2018-09-13, 00:18:06,VALID,918.466,VALID,0.0,VALID,98.132,VALID,0.001,VALID,19.357,INVALID,360.0,VALID,0.0,
2018-09-13, 00:19:06,VALID,918.464,VALID,0.0,VALID,98.138,VALID,-0.007,VALID,19.374,INVALID,360.0,VALID,0.0,
2018-09-13, 00:20:06,VALID,918.464,VALID,0.0,VALID,98.137,VALID,-0.007,VALID,19.381,INVALID,360.0,VALID,0.0,
2018-09-13, 00:21:06,VALID,918.429,VALID,0.0,VALID,98.105,VALID,-0.009,VALID,19.373,VALID,80.0,VALID,0.0,
2018-09-13, 00:22:06,VALID,918.42,VALID,0.0,VALID,98.033,VALID,0.002,VALID,19.359,VALID,86.0,VALID,0.0,
2018-09-13, 00:23:06,VALID,918.404,VALID,0.0,VALID,97.954,VALID,0.014,VALID,19.357,VALID,86.0,VALID,0.0,
2018-09-13, 00:24:06,VALID,918.402,VALID,0.0,VALID,97.866,VALID,0.009,VALID,19.366,VALID,86.0,VALID,0.0,
2018-09-13, 00:25:06,VALID,918.381,VALID,0.0,VALID,97.753,VALID,-0.01,VALID,19.367,VALID,86.0,VALID,0.0,
2018-09-13, 00:26:06,VALID,918.383,VALID,0.0,VALID,97.655,VALID,0.006,VALID,19.381,VALID,86.0,VALID,0.0,
2018-09-13, 00:27:06,VALID,918.361,VALID,0.0,VALID,97.676,VALID,0.008,VALID,19.421,VALID,86.0,VALID,0.0,
2018-09-13, 00:28:06,VALID,918.345,VALID,0.0,VALID,97.726,VALID,-0.008,VALID,19.463,VALID,85.0,VALID,0.0,
2018-09-13, 00:29:06,VALID,918.33,VALID,0.0,VALID,97.707,VALID,0.011,VALID,19.475,VALID,85.0,VALID,0.0,
2018-09-13, 00:30:06,VALID,918.335,VALID,0.0,VALID,97.681,VALID,0.001,VALID,19.479,VALID,85.0,VALID,0.0,
2018-09-13, 00:31:06,VALID,918.327,VALID,0.0,VALID,97.687,VALID,0.011,VALID,19.484,VALID,85.0,VALID,0.0,
2018-09-13, 00:32:06,VALID,918.319,VALID,0.0,VALID,97.695,VALID,0.003,VALID,19.478,VALID,85.0,VALID,0.0,
2018-09-13, 00:33:06,VALID,918.313,VALID,0.0,VALID,97.738,VALID,0.002,VALID,19.481,VALID,85.0,VALID,0.0,
2018-09-13, 00:34:06,VALID,918.313,VALID,0.0,VALID,97.803,VALID,0.02,VALID,19.495,VALID,85.0,VALID,0.0,
2018-09-13, 00:35:06,VALID,918.299,VALID,0.0,VALID,97.787,VALID,0.018,VALID,19.481,VALID,85.0,VALID,0.0,
2018-09-13, 00:36:06,VALID,918.3,VALID,0.0,VALID,97.676,VALID,-0.008,VALID,19.459,VALID,85.0,VALID,0.0,
2018-09-13, 00:37:06,VALID,918.282,VALID,0.0,VALID,97.633,VALID,0.0,VALID,19.463,VALID,85.0,VALID,0.0,
2018-09-13, 00:38:06,VALID,918.284,VALID,0.0,VALID,97.646,VALID,-0.002,VALID,19.477,VALID,85.0,VALID,0.0,
2018-09-13, 00:39:06,VALID,918.25,VALID,0.0,VALID,97.677,VALID,-0.005,VALID,19.498,VALID,85.0,VALID,0.0,
2018-09-13, 00:40:06,VALID,918.273,VALID,0.0,VALID,97.721,VALID,0.0,VALID,19.516,VALID,85.0,VALID,0.0,
2018-09-13, 00:41:06,VALID,918.256,VALID,0.0,VALID,97.749,VALID,-0.011,VALID,19.528,VALID,85.0,VALID,0.0,
2018-09-13, 00:42:06,VALID,918.265,VALID,0.0,VALID,97.786,VALID,0.007,VALID,19.55,VALID,85.0,VALID,0.0,
2018-09-13, 00:43:06,VALID,918.252,VALID,0.0,VALID,97.873,VALID,-0.007,VALID,19.581,VALID,85.0,VALID,0.0,
2018-09-13, 00:44:06,VALID,918.271,VALID,0.0,VALID,97.857,VALID,-0.021,VALID,19.57,VALID,85.0,VALID,0.0,
2018-09-13, 00:45:06,VALID,918.269,VALID,0.0,VALID,97.702,VALID,-0.012,VALID,19.518,VALID,85.0,VALID,0.0,
2018-09-13, 00:46:06,VALID,918.281,VALID,0.0,VALID,97.65,VALID,-0.012,VALID,19.505,VALID,85.0,VALID,0.0,
2018-09-13, 00:47:06,VALID,918.266,VALID,0.0,VALID,97.698,VALID,-0.017,VALID,19.525,VALID,85.0,VALID,0.0,
2018-09-13, 00:48:06,VALID,918.248,VALID,0.0,VALID,97.791,VALID,-0.004,VALID,19.565,VALID,85.0,VALID,0.0,
2018-09-13, 00:49:06,VALID,918.265,VALID,0.0,VALID,97.851,VALID,-0.006,VALID,19.598,VALID,85.0,VALID,0.0,
2018-09-13, 00:50:06,VALID,918.244,VALID,0.0,VALID,97.776,VALID,-0.008,VALID,19.59,VALID,68.0,VALID,0.0,
2018-09-13, 00:51:06,VALID,918.247,VALID,0.0,VALID,97.79,VALID,0.012,VALID,19.593,VALID,65.0,VALID,0.0,
2018-09-13, 00:52:06,VALID,918.213,VALID,0.0,VALID,97.749,VALID,0.01,VALID,19.591,VALID,65.0,VALID,0.0,
2018-09-13, 00:53:06,VALID,918.224,VALID,0.0,VALID,97.786,VALID,-0.026,VALID,19.6,VALID,65.0,VALID,0.0,
2018-09-13, 00:54:06,VALID,918.218,VALID,0.0,VALID,97.771,VALID,-0.021,VALID,19.597,VALID,65.0,VALID,0.0,
2018-09-13, 00:55:06,VALID,918.206,VALID,0.0,VALID,97.757,VALID,-0.012,VALID,19.587,VALID,65.0,VALID,0.0,
2018-09-13, 00:56:06,VALID,918.2,VALID,0.0,VALID,97.651,VALID,-0.014,VALID,19.54,VALID,65.0,VALID,0.0,
2018-09-13, 00:57:06,VALID,918.211,VALID,0.0,VALID,97.58,VALID,-0.003,VALID,19.494,VALID,65.0,VALID,0.0,
2018-09-13, 00:58:06,VALID,918.23,VALID,0.0,VALID,97.58,VALID,-0.01,VALID,19.47,VALID,65.0,VALID,0.0,
2018-09-13, 00:59:06,VALID,918.246,VALID,0.0,VALID,97.637,VALID,-0.01,VALID,19.467,VALID,65.0,VALID,0.0,
2018-09-13, 01:00:06,VALID,918.243,VALID,0.0,VALID,97.775,VALID,-0.007,VALID,19.475,VALID,65.0,VALID,0.0,
2018-09-13, 01:01:06,VALID,918.262,VALID,0.0,VALID,97.828,VALID,-0.007,VALID,19.477,VALID,65.0,VALID,0.0,
2018-09-13, 01:02:06,VALID,918.265,VALID,0.0,VALID,97.841,VALID,-0.008,VALID,19.467,VALID,65.0,VALID,0.0,
2018-09-13, 01:03:06,VALID,918.254,VALID,0.0,VALID,97.895,VALID,0.001,VALID,19.46,VALID,65.0,VALID,0.0,
2018-09-13, 01:04:06,VALID,918.242,VALID,0.0,VALID,97.885,VALID,-0.005,VALID,19.44,VALID,66.0,VALID,0.0,
2018-09-13, 01:05:06,VALID,918.226,VALID,0.0,VALID,97.861,VALID,-0.012,VALID,19.42,VALID,66.0,VALID,0.0,
2018-09-13, 01:06:06,VALID,918.219,VALID,0.0,VALID,97.939,VALID,-0.013,VALID,19.443,VALID,70.0,VALID,0.0,
2018-09-13, 01:07:06,VALID,918.212,VALID,0.0,VALID,98.03,VALID,0.008,VALID,19.488,VALID,72.0,VALID,0.0,
2018-09-13, 01:08:06,VALID,918.193,VALID,0.0,VALID,98.105,VALID,-0.007,VALID,19.509,VALID,72.0,VALID,0.0,
2018-09-13, 01:09:06,VALID,918.187,VALID,0.0,VALID,98.101,VALID,-0.015,VALID,19.509,VALID,72.0,VALID,0.0,
2018-09-13, 01:10:06,VALID,918.169,VALID,0.0,VALID,98.045,VALID,0.017,VALID,19.481,VALID,72.0,VALID,0.0,
2018-09-13, 01:11:06,VALID,918.151,VALID,0.0,VALID,98.149,VALID,0.01,VALID,19.518,VALID,72.0,VALID,0.0,
2018-09-13, 01:12:06,VALID,918.157,VALID,0.0,VALID,98.166,VALID,0.0,VALID,19.53,VALID,72.0,VALID,0.0,
2018-09-13, 01:13:06,VALID,918.153,VALID,0.0,VALID,98.159,VALID,0.018,VALID,19.524,VALID,72.0,VALID,0.0,
2018-09-13, 01:14:06,VALID,918.157,VALID,0.0,VALID,98.134,VALID,0.001,VALID,19.523,VALID,72.0,VALID,0.0,
2018-09-13, 01:15:06,VALID,918.132,VALID,0.0,VALID,98.079,VALID,0.01,VALID,19.529,VALID,72.0,VALID,0.0,
2018-09-13, 01:16:06,VALID,918.141,VALID,0.0,VALID,98.044,VALID,0.016,VALID,19.521,VALID,72.0,VALID,0.0,
2018-09-13, 01:17:06,VALID,918.136,VALID,0.0,VALID,98.009,VALID,0.015,VALID,19.528,VALID,72.0,VALID,0.0,
2018-09-13, 01:18:06,VALID,918.115,VALID,0.0,VALID,98.01,VALID,0.012,VALID,19.539,VALID,72.0,VALID,0.0,
2018-09-13, 01:19:06,VALID,918.108,VALID,0.0,VALID,97.962,VALID,0.012,VALID,19.522,VALID,72.0,VALID,0.0,
2018-09-13, 01:20:06,VALID,918.111,VALID,0.0,VALID,97.886,VALID,0.017,VALID,19.486,VALID,72.0,VALID,0.0,
2018-09-13, 01:21:06,VALID,918.091,VALID,0.0,VALID,97.841,VALID,0.008,VALID,19.479,VALID,72.0,VALID,0.0,
2018-09-13, 01:22:06,VALID,918.085,VALID,0.0,VALID,97.854,VALID,0.001,VALID,19.485,VALID,72.0,VALID,0.0,
2018-09-13, 01:23:06,VALID,918.072,VALID,0.0,VALID,97.733,VALID,0.014,VALID,19.441,INVALID,360.0,VALID,0.0,
2018-09-13, 01:24:06,VALID,918.044,VALID,0.0,VALID,97.779,VALID,0.013,VALID,19.45,INVALID,360.0,VALID,0.0,
2018-09-13, 01:25:06,VALID,918.032,VALID,0.0,VALID,97.733,VALID,-0.005,VALID,19.426,INVALID,360.0,VALID,0.0,
2018-09-13, 01:26:06,VALID,918.002,VALID,0.0,VALID,97.706,VALID,0.023,VALID,19.414,INVALID,360.0,VALID,0.0,
2018-09-13, 01:27:06,VALID,917.987,VALID,0.0,VALID,97.881,VALID,0.007,VALID,19.496,INVALID,360.0,VALID,0.0,
2018-09-13, 01:28:06,VALID,917.979,VALID,0.0,VALID,97.912,VALID,0.007,VALID,19.501,VALID,323.0,VALID,0.0,
2018-09-13, 01:29:06,VALID,917.938,VALID,0.0,VALID,97.901,VALID,0.005,VALID,19.516,VALID,324.0,VALID,0.0,
2018-09-13, 01:30:06,VALID,917.911,VALID,0.0,VALID,97.911,VALID,-0.004,VALID,19.532,VALID,325.0,VALID,0.0,
2018-09-13, 01:31:06,VALID,917.888,VALID,0.0,VALID,97.806,VALID,0.008,VALID,19.503,INVALID,360.0,VALID,0.0,
2018-09-13, 01:32:06,VALID,917.872,VALID,0.0,VALID,97.619,VALID,-0.002,VALID,19.433,VALID,85.0,VALID,0.0,
2018-09-13, 01:33:06,VALID,917.834,VALID,0.0,VALID,97.53,VALID,0.0,VALID,19.413,VALID,99.0,VALID,0.0,
2018-09-13, 01:34:06,VALID,917.814,VALID,0.0,VALID,97.504,VALID,0.008,VALID,19.407,VALID,97.0,VALID,0.0,
2018-09-13, 01:35:06,VALID,917.784,VALID,0.0,VALID,97.55,VALID,0.011,VALID,19.425,INVALID,360.0,VALID,0.0,
2018-09-13, 01:36:06,VALID,917.774,VALID,0.0,VALID,97.558,VALID,0.012,VALID,19.426,VALID,109.0,VALID,0.0,
2018-09-13, 01:37:06,VALID,917.722,VALID,0.0,VALID,97.634,VALID,0.007,VALID,19.44,VALID,108.0,VALID,0.0,
2018-09-13, 01:38:06,VALID,917.729,VALID,0.0,VALID,97.758,VALID,-0.0,VALID,19.453,VALID,108.0,VALID,0.0,
2018-09-13, 01:39:06,VALID,917.711,VALID,0.0,VALID,97.8,VALID,0.011,VALID,19.448,VALID,108.0,VALID,0.0,
2018-09-13, 01:40:06,VALID,917.693,VALID,0.0,VALID,97.834,VALID,0.018,VALID,19.444,VALID,108.0,VALID,0.0,
2018-09-13, 01:41:06,VALID,917.673,VALID,0.0,VALID,97.86,VALID,0.015,VALID,19.44,VALID,109.0,VALID,0.0,
2018-09-13, 01:42:06,VALID,917.656,VALID,0.0,VALID,97.83,VALID,0.0,VALID,19.428,VALID,109.0,VALID,0.0,
2018-09-13, 01:43:06,VALID,917.636,VALID,0.0,VALID,97.814,VALID,-0.001,VALID,19.425,VALID,109.0,VALID,0.0,
2018-09-13, 01:44:06,VALID,917.632,VALID,0.0,VALID,97.855,VALID,-0.013,VALID,19.433,VALID,109.0,VALID,0.0,
2018-09-13, 01:45:06,VALID,917.625,VALID,0.0,VALID,97.933,VALID,-0.003,VALID,19.442,VALID,108.0,VALID,0.0,
2018-09-13, 01:46:06,VALID,917.591,VALID,0.0,VALID,97.963,VALID,0.014,VALID,19.441,VALID,108.0,VALID,0.0,
2018-09-13, 01:47:06,VALID,917.559,VALID,0.0,VALID,97.969,VALID,-0.002,VALID,19.431,VALID,108.0,VALID,0.0,
2018-09-13, 01:48:06,VALID,917.551,VALID,0.0,VALID,97.968,VALID,-0.003,VALID,19.41,VALID,108.0,VALID,0.0,
2018-09-13, 01:49:06,VALID,917.553,VALID,0.0,VALID,97.963,VALID,-0.006,VALID,19.421,VALID,120.0,VALID,0.0,
2018-09-13, 01:50:06,VALID,917.543,VALID,0.0,VALID,98.049,VALID,0.016,VALID,19.459,VALID,132.0,VALID,0.0,
2018-09-13, 01:51:06,VALID,917.543,VALID,0.0,VALID,98.097,VALID,0.003,VALID,19.484,VALID,133.0,VALID,0.0,
2018-09-13, 01:52:06,VALID,917.541,VALID,0.0,VALID,98.079,VALID,-0.005,VALID,19.492,VALID,134.0,VALID,0.0,
2018-09-13, 01:53:06,VALID,917.543,VALID,0.0,VALID,98.105,VALID,-0.016,VALID,19.509,VALID,134.0,VALID,0.0,
2018-09-13, 01:54:06,VALID,917.571,VALID,0.0,VALID,98.116,VALID,-0.022,VALID,19.513,VALID,134.0,VALID,0.0,
2018-09-13, 01:55:06,VALID,917.56,VALID,0.0,VALID,98.132,VALID,-0.009,VALID,19.498,VALID,134.0,VALID,0.0,
2018-09-13, 01:56:06,VALID,917.571,VALID,0.0,VALID,98.16,VALID,-0.014,VALID,19.489,VALID,134.0,VALID,0.0,
2018-09-13, 01:57:06,VALID,917.591,VALID,0.0,VALID,98.197,VALID,-0.012,VALID,19.494,VALID,134.0,VALID,0.0,
2018-09-13, 01:58:06,VALID,917.59,VALID,0.0,VALID,98.221,VALID,-0.015,VALID,19.483,VALID,134.0,VALID,0.0,
2018-09-13, 01:59:06,VALID,917.56,VALID,0.0,VALID,98.206,VALID,0.005,VALID,19.465,VALID,134.0,VALID,0.0,
2018-09-13, 02:00:06,VALID,917.561,VALID,0.0,VALID,98.268,VALID,-0.01,VALID,19.471,VALID,132.0,VALID,0.0,
2018-09-13, 02:01:06,VALID,917.549,VALID,0.0,VALID,98.324,VALID,-0.012,VALID,19.523,VALID,128.0,VALID,0.0,
2018-09-13, 02:02:06,VALID,917.54,VALID,0.0,VALID,98.374,VALID,-0.019,VALID,19.552,VALID,129.0,VALID,0.0,
2018-09-13, 02:03:06,VALID,917.52,VALID,0.0,VALID,98.351,VALID,-0.011,VALID,19.541,VALID,129.0,VALID,0.0,
2018-09-13, 02:04:06,VALID,917.504,VALID,0.0,VALID,98.312,VALID,-0.017,VALID,19.534,VALID,129.0,VALID,0.0,
2018-09-13, 02:05:06,VALID,917.502,VALID,0.0,VALID,98.28,VALID,-0.015,VALID,19.51,VALID,129.0,VALID,0.0,
2018-09-13, 02:06:06,VALID,917.486,VALID,0.0,VALID,98.214,VALID,-0.016,VALID,19.491,VALID,129.0,VALID,0.0,
2018-09-13, 02:07:06,VALID,917.497,VALID,0.0,VALID,98.249,VALID,-0.008,VALID,19.509,VALID,129.0,VALID,0.0,
2018-09-13, 02:08:06,VALID,917.487,VALID,0.0,VALID,98.305,VALID,-0.015,VALID,19.553,VALID,129.0,VALID,0.0,
2018-09-13, 02:09:06,VALID,917.476,VALID,0.0,VALID,98.327,VALID,-0.006,VALID,19.566,VALID,129.0,VALID,0.0,
2018-09-13, 02:10:06,VALID,917.483,VALID,0.0,VALID,98.262,VALID,-0.014,VALID,19.54,VALID,129.0,VALID,0.0,
2018-09-13, 02:11:07,VALID,917.476,VALID,0.0,VALID,98.225,VALID,-0.028,VALID,19.52,VALID,129.0,VALID,0.0,
2018-09-13, 02:12:07,VALID,917.481,VALID,0.0,VALID,98.226,VALID,-0.008,VALID,19.506,VALID,129.0,VALID,0.0,
2018-09-13, 02:13:07,VALID,917.484,VALID,0.0,VALID,98.154,VALID,-0.008,VALID,19.479,VALID,129.0,VALID,0.0,
2018-09-13, 02:14:07,VALID,917.492,VALID,0.0,VALID,98.084,VALID,-0.015,VALID,19.455,VALID,118.0,VALID,0.0,
2018-09-13, 02:15:07,VALID,917.506,VALID,0.0,VALID,98.053,VALID,0.003,VALID,19.461,INVALID,360.0,VALID,0.0,
2018-09-13, 02:16:07,VALID,917.513,VALID,0.0,VALID,98.002,VALID,-0.004,VALID,19.481,INVALID,360.0,VALID,0.0,
2018-09-13, 02:17:07,VALID,917.521,VALID,0.0,VALID,97.98,VALID,-0.006,VALID,19.5,INVALID,360.0,VALID,0.0,
2018-09-13, 02:18:07,VALID,917.528,VALID,0.0,VALID,97.961,VALID,-0.008,VALID,19.506,INVALID,360.0,VALID,0.0,
2018-09-13, 02:19:07,VALID,917.528,VALID,0.0,VALID,98.001,VALID,-0.01,VALID,19.512,INVALID,360.0,VALID,0.0,
2018-09-13, 02:20:07,VALID,917.512,VALID,0.0,VALID,98.033,VALID,-0.003,VALID,19.53,INVALID,360.0,VALID,0.0,
2018-09-13, 02:21:07,VALID,917.517,VALID,0.0,VALID,98.083,VALID,-0.012,VALID,19.557,INVALID,360.0,VALID,0.0,
2018-09-13, 02:22:07,VALID,917.528,VALID,0.0,VALID,98.069,VALID,0.011,VALID,19.554,INVALID,360.0,VALID,0.0,
2018-09-13, 02:23:07,VALID,917.519,VALID,0.0,VALID,97.965,VALID,0.01,VALID,19.506,INVALID,360.0,VALID,0.0,
2018-09-13, 02:24:07,VALID,917.519,VALID,0.0,VALID,97.964,VALID,0.015,VALID,19.5,INVALID,360.0,VALID,0.0,
2018-09-13, 02:25:07,VALID,917.516,VALID,0.0,VALID,97.932,VALID,0.001,VALID,19.487,INVALID,360.0,VALID,0.0,
2018-09-13, 02:26:07,VALID,917.521,VALID,0.0,VALID,97.928,VALID,0.017,VALID,19.469,INVALID,360.0,VALID,0.0,
2018-09-13, 02:27:07,VALID,917.496,VALID,0.0,VALID,97.926,VALID,0.011,VALID,19.455,VALID,114.0,VALID,0.0,
2018-09-13, 02:28:07,VALID,917.507,VALID,0.0,VALID,97.965,VALID,0.007,VALID,19.454,INVALID,360.0,VALID,0.0,
2018-09-13, 02:29:07,VALID,917.508,VALID,0.0,VALID,97.959,VALID,0.001,VALID,19.443,INVALID,360.0,VALID,0.0,
2018-09-13, 02:30:07,VALID,917.506,VALID,0.0,VALID,97.948,VALID,0.013,VALID,19.454,INVALID,360.0,VALID,0.0,
2018-09-13, 02:31:07,VALID,917.491,VALID,0.0,VALID,97.982,VALID,0.023,VALID,19.471,VALID,67.0,VALID,0.0,
2018-09-13, 02:32:07,VALID,917.497,VALID,0.0,VALID,98.02,VALID,0.011,VALID,19.485,VALID,67.0,VALID,0.0,
2018-09-13, 02:33:07,VALID,917.493,VALID,0.0,VALID,97.999,VALID,0.02,VALID,19.483,VALID,65.0,VALID,0.0,
2018-09-13, 02:34:07,VALID,917.486,VALID,0.0,VALID,97.933,VALID,0.025,VALID,19.45,VALID,65.0,VALID,0.0,
2018-09-13, 02:35:07,VALID,917.482,VALID,0.0,VALID,97.817,VALID,0.035,VALID,19.412,VALID,65.0,VALID,0.0,
2018-09-13, 02:36:07,VALID,917.479,VALID,0.0,VALID,97.736,VALID,0.026,VALID,19.39,VALID,65.0,VALID,0.0,
2018-09-13, 02:37:07,VALID,917.466,VALID,0.0,VALID,97.716,VALID,0.007,VALID,19.377,VALID,65.0,VALID,0.0,
2018-09-13, 02:38:07,VALID,917.456,VALID,0.0,VALID,97.649,VALID,-0.007,VALID,19.368,VALID,66.0,VALID,0.0,
2018-09-13, 02:39:07,VALID,917.475,VALID,0.0,VALID,97.596,VALID,0.003,VALID,19.379,INVALID,360.0,VALID,0.0,
2018-09-13, 02:40:07,VALID,917.457,VALID,0.0,VALID,97.569,VALID,-0.014,VALID,19.405,INVALID,360.0,VALID,0.0,
2018-09-13, 02:41:07,VALID,917.449,VALID,0.0,VALID,97.522,VALID,0.005,VALID,19.417,INVALID,360.0,VALID,0.0,
2018-09-13, 02:42:07,VALID,917.439,VALID,0.0,VALID,97.493,VALID,-0.009,VALID,19.414,INVALID,360.0,VALID,0.0,
2018-09-13, 02:43:07,VALID,917.433,VALID,0.0,VALID,97.548,VALID,-0.006,VALID,19.445,INVALID,360.0,VALID,0.0,
2018-09-13, 02:44:07,VALID,917.44,VALID,0.0,VALID,97.716,VALID,-0.008,VALID,19.491,VALID,281.0,VALID,0.0,
2018-09-13, 02:45:07,VALID,917.422,VALID,0.0,VALID,97.768,VALID,-0.012,VALID,19.52,VALID,290.0,VALID,0.0,
2018-09-13, 02:46:07,VALID,917.431,VALID,0.0,VALID,97.828,VALID,0.008,VALID,19.514,VALID,289.0,VALID,0.0,
2018-09-13, 02:47:07,VALID,917.414,VALID,0.0,VALID,97.9,VALID,0.0,VALID,19.491,VALID,284.0,VALID,0.0,
2018-09-13, 02:48:07,VALID,917.418,VALID,0.0,VALID,97.9,VALID,-0.003,VALID,19.439,VALID,283.0,VALID,0.0,
2018-09-13, 02:49:07,VALID,917.407,VALID,0.0,VALID,97.974,VALID,-0.005,VALID,19.417,VALID,283.0,VALID,0.0,
2018-09-13, 02:50:07,VALID,917.395,VALID,0.0,VALID,98.045,VALID,0.004,VALID,19.406,VALID,283.0,VALID,0.0,
2018-09-13, 02:51:07,VALID,917.394,VALID,0.0,VALID,98.099,VALID,0.001,VALID,19.424,VALID,283.0,VALID,0.0,
2018-09-13, 02:52:07,VALID,917.377,VALID,0.0,VALID,98.158,VALID,-0.013,VALID,19.439,VALID,283.0,VALID,0.0,
2018-09-13, 02:53:07,VALID,917.387,VALID,0.0,VALID,98.22,VALID,-0.026,VALID,19.479,VALID,283.0,VALID,0.0,
2018-09-13, 02:54:07,VALID,917.381,VALID,0.0,VALID,98.241,VALID,-0.045,VALID,19.499,VALID,283.0,VALID,0.0,
2018-09-13, 02:55:07,VALID,917.379,VALID,0.0,VALID,98.251,VALID,-0.045,VALID,19.508,VALID,283.0,VALID,0.0,
2018-09-13, 02:56:07,VALID,917.393,VALID,0.0,VALID,98.268,VALID,-0.037,VALID,19.512,VALID,283.0,VALID,0.0,
2018-09-13, 02:57:07,VALID,917.4,VALID,0.0,VALID,98.289,VALID,-0.044,VALID,19.525,VALID,283.0,VALID,0.0,
2018-09-13, 02:58:07,VALID,917.38,VALID,0.0,VALID,98.342,VALID,-0.035,VALID,19.542,VALID,283.0,VALID,0.0,
2018-09-13, 02:59:07,VALID,917.388,VALID,0.0,VALID,98.353,VALID,-0.043,VALID,19.548,VALID,283.0,VALID,0.0,
2018-09-13, 03:00:07,VALID,917.391,VALID,0.0,VALID,98.388,VALID,-0.035,VALID,19.548,VALID,283.0,VALID,0.0,
2018-09-13, 03:01:07,VALID,917.387,VALID,0.0,VALID,98.414,VALID,-0.02,VALID,19.559,VALID,283.0,VALID,0.0,
2018-09-13, 03:02:07,VALID,917.38,VALID,0.0,VALID,98.375,VALID,-0.017,VALID,19.521,VALID,283.0,VALID,0.0,
2018-09-13, 03:03:07,VALID,917.374,VALID,0.0,VALID,98.266,VALID,-0.022,VALID,19.458,VALID,283.0,VALID,0.0,
2018-09-13, 03:04:07,VALID,917.363,VALID,0.0,VALID,98.265,VALID,-0.029,VALID,19.417,VALID,283.0,VALID,0.0,
2018-09-13, 03:05:07,VALID,917.347,VALID,0.0,VALID,98.256,VALID,-0.03,VALID,19.396,VALID,283.0,VALID,0.0,
2018-09-13, 03:06:07,VALID,917.335,VALID,0.0,VALID,98.322,VALID,-0.026,VALID,19.41,VALID,283.0,VALID,0.0,
2018-09-13, 03:07:07,VALID,917.349,VALID,0.0,VALID,98.351,VALID,-0.003,VALID,19.405,VALID,283.0,VALID,0.0,
2018-09-13, 03:08:07,VALID,917.342,VALID,0.0,VALID,98.335,VALID,-0.002,VALID,19.391,VALID,283.0,VALID,0.0,
2018-09-13, 03:09:07,VALID,917.335,VALID,0.0,VALID,98.328,VALID,-0.012,VALID,19.369,VALID,283.0,VALID,0.0,
2018-09-13, 03:10:07,VALID,917.333,VALID,0.0,VALID,98.334,VALID,-0.011,VALID,19.372,VALID,283.0,VALID,0.0,
2018-09-13, 03:11:07,VALID,917.326,VALID,0.0,VALID,98.439,VALID,-0.011,VALID,19.422,VALID,283.0,VALID,0.0,
2018-09-13, 03:12:07,VALID,917.327,VALID,0.0,VALID,98.435,VALID,-0.011,VALID,19.422,INVALID,360.0,VALID,0.0,
2018-09-13, 03:13:07,VALID,917.316,VALID,0.0,VALID,98.362,VALID,0.011,VALID,19.388,INVALID,360.0,VALID,0.0,
2018-09-13, 03:14:07,VALID,917.314,VALID,0.0,VALID,98.355,VALID,-0.002,VALID,19.381,INVALID,360.0,VALID,0.0,
2018-09-13, 03:15:07,VALID,917.308,VALID,0.0,VALID,98.376,VALID,0.02,VALID,19.381,INVALID,360.0,VALID,0.0,
2018-09-13, 03:16:07,VALID,917.306,VALID,0.0,VALID,98.429,VALID,0.001,VALID,19.396,INVALID,360.0,VALID,0.0,
2018-09-13, 03:17:07,VALID,917.299,VALID,0.0,VALID,98.4,VALID,0.006,VALID,19.378,INVALID,360.0,VALID,0.0,
2018-09-13, 03:18:07,VALID,917.293,VALID,0.0,VALID,98.414,VALID,0.005,VALID,19.372,INVALID,360.0,VALID,0.0,
2018-09-13, 03:19:07,VALID,917.287,VALID,0.0,VALID,98.356,VALID,0.01,VALID,19.342,INVALID,360.0,VALID,0.0,
2018-09-13, 03:20:07,VALID,917.278,VALID,0.0,VALID,98.415,VALID,0.005,VALID,19.364,INVALID,360.0,VALID,0.0,
2018-09-13, 03:21:07,VALID,917.265,VALID,0.0,VALID,98.355,VALID,0.004,VALID,19.349,INVALID,360.0,VALID,0.0,
2018-09-13, 03:22:07,VALID,917.257,VALID,0.0,VALID,98.4,VALID,0.002,VALID,19.37,INVALID,360.0,VALID,0.0,
2018-09-13, 03:23:07,VALID,917.243,VALID,0.0,VALID,98.461,VALID,-0.011,VALID,19.428,INVALID,360.0,VALID,0.0,
2018-09-13, 03:24:07,VALID,917.261,VALID,0.0,VALID,98.609,VALID,-0.016,VALID,19.53,INVALID,360.0,VALID,0.0,
2018-09-13, 03:25:07,VALID,917.255,VALID,0.0,VALID,98.566,VALID,-0.011,VALID,19.522,INVALID,360.0,VALID,0.0,
2018-09-13, 03:26:07,VALID,917.259,VALID,0.0,VALID,98.478,VALID,-0.012,VALID,19.456,VALID,298.0,VALID,0.0,
2018-09-13, 03:27:07,VALID,917.267,VALID,0.0,VALID,98.475,VALID,0.007,VALID,19.467,VALID,274.0,VALID,0.0,
2018-09-13, 03:28:07,VALID,917.269,VALID,0.0,VALID,98.494,VALID,-0.016,VALID,19.496,VALID,270.0,VALID,0.0,
2018-09-13, 03:29:07,VALID,917.273,VALID,0.0,VALID,98.471,VALID,-0.008,VALID,19.469,VALID,270.0,VALID,0.0,
2018-09-13, 03:30:07,VALID,917.284,VALID,0.0,VALID,98.468,VALID,0.01,VALID,19.438,VALID,270.0,VALID,0.0,
2018-09-13, 03:31:07,VALID,917.274,VALID,0.0,VALID,98.451,VALID,0.008,VALID,19.418,VALID,270.0,VALID,0.0,
2018-09-13, 03:32:07,VALID,917.267,VALID,0.0,VALID,98.442,VALID,-0.005,VALID,19.407,VALID,270.0,VALID,0.0,
2018-09-13, 03:33:07,VALID,917.257,VALID,0.0,VALID,98.442,VALID,0.011,VALID,19.404,VALID,270.0,VALID,0.0,
2018-09-13, 03:34:07,VALID,917.258,VALID,0.0,VALID,98.412,VALID,0.01,VALID,19.406,VALID,270.0,VALID,0.0,
2018-09-13, 03:35:07,VALID,917.261,VALID,0.0,VALID,98.465,VALID,0.019,VALID,19.444,VALID,270.0,VALID,0.0,
2018-09-13, 03:36:07,VALID,917.24,VALID,0.0,VALID,98.511,VALID,-0.001,VALID,19.469,VALID,270.0,VALID,0.0,
2018-09-13, 03:37:07,VALID,917.257,VALID,0.0,VALID,98.547,VALID,-0.006,VALID,19.495,VALID,270.0,VALID,0.0,
2018-09-13, 03:38:07,VALID,917.228,VALID,0.0,VALID,98.535,VALID,0.001,VALID,19.455,VALID,270.0,VALID,0.0,
2018-09-13, 03:39:07,VALID,917.225,VALID,0.0,VALID,98.582,VALID,-0.004,VALID,19.478,VALID,270.0,VALID,0.0,
2018-09-13, 03:40:07,VALID,917.234,VALID,0.0,VALID,98.617,VALID,0.018,VALID,19.486,VALID,270.0,VALID,0.0,
2018-09-13, 03:41:07,VALID,917.21,VALID,0.0,VALID,98.619,VALID,0.012,VALID,19.496,VALID,270.0,VALID,0.0,